Location: Newark
(33.6439°N, 114.9881°W)
Time: 15:03:53
(UTC+00:00)

A-11 Canister half - Pass Details

Date: 26 August 2019
Orbit: 1527 x 1682 km, 47.3° (Epoch: 22 October)

Event Time Altitude Azimuth Distance (km) Brightness Sun altitude
Rises 23:18:53 0° 303° (WNW) 4,919 12.2 35.2°
Reaches altitude 10° 23:22:11 10° 309° (NW) 3,939 11.8 34.5°
Maximum altitude 23:32:06 55° 25° (NNE) 1,963 9.8 32.5°
Drops below altitude 10° 23:41:56 10° 102° (ESE) 3,912 10.7 30.5°
Sets 23:45:11 0° 107° (ESE) 4,883 11.1 29.8°
